When you browse on this site, cookies collect data to enhance your experience and personalize the content and advertising you see.
Visit our Privacy Policy to learn more. By continuing to use the site, you agree to this use of cookies and data.
  • In United Kingdom
  • List of Countries
  • For 7 days
  • Water Temperature
  • Satellite Maps
  • Weather Map
  • Weather Widgets
  • user-avatar
    Login

    Hourly Weather Naru

    Today, 24 January, Thursday

    Time Temperature Precipitation Wind Pressure Humidity
    00:00 +16°C° 0 mm 1 mps 746 mmHg 97%
    01:00 +15°C° 0 mm 1 mps 746 mmHg 98%
    02:00 +15°C° 0 mm 1 mps 745 mmHg 98%
    03:00 +15°C° 0 mm 1 mps 745 mmHg 98%
    04:00 +15°C° 0 mm 1 mps 745 mmHg 98%
    05:00 +15°C° 0 mm 1 mps 745 mmHg 98%
    06:00 +15°C° 0 mm 1 mps 745 mmHg 98%
    07:00 +16°C° 0 mm 1 mps 745 mmHg 98%
    08:00 +20°C° 0 mm 1 mps 746 mmHg 84%
    09:00 +23°C° 0 mm 1 mps 747 mmHg 70%
    10:00 +26°C° 0 mm 2 mps 747 mmHg 57%
    11:00 +28°C° 0 mm 2 mps 747 mmHg 50%
    12:00 +30°C° 0 mm 2 mps 746 mmHg 43%
    13:00 +32°C° 0 mm 2 mps 746 mmHg 37%
    14:00 +31°C° 0 mm 2 mps 745 mmHg 38%
    15:00 +31°C° 0 mm 2 mps 745 mmHg 39%
    16:00 +31°C° 0 mm 2 mps 744 mmHg 41%
    17:00 +28°C° 0 mm 2 mps 744 mmHg 52%
    18:00 +25°C° 0 mm 2 mps 744 mmHg 64%
    19:00 +23°C° 0 mm 2 mps 745 mmHg 76%
    20:00 +21°C° 0 mm 1 mps 745 mmHg 82%
    21:00 +20°C° 0 mm 1 mps 745 mmHg 89%
    22:00 +19°C° 0 mm 1 mps 745 mmHg 95%
    23:00 +18°C° 0 mm 1 mps 745 mmHg 96%

    Tomorrow, 25 January, Friday

    Time Temperature Precipitation Wind Pressure Humidity
    00:00 +18°C° 0 mm 1 mps 745 mmHg 97%
    01:00 +18°C° 0 mm 1 mps 745 mmHg 98%
    02:00 +16°C° 0 mm 1 mps 745 mmHg 98%
    03:00 +16°C° 0 mm 1 mps 745 mmHg 98%
    04:00 +16°C° 0 mm 1 mps 744 mmHg 98%
    05:00 +16°C° 0 mm 1 mps 745 mmHg 98%
    06:00 +16°C° 0 mm 1 mps 745 mmHg 98%
    07:00 +16°C° 0 mm 1 mps 746 mmHg 98%
    08:00 +20°C° 0 mm 1 mps 746 mmHg 81%
    09:00 +24°C° 0 mm 1 mps 747 mmHg 64%
    10:00 +28°C° 0 mm 1 mps 748 mmHg 48%
    11:00 +29°C° 0 mm 2 mps 747 mmHg 42%
    12:00 +31°C° 0 mm 2 mps 746 mmHg 36%
    13:00 +34°C° 0 mm 2 mps 746 mmHg 31%
    14:00 +32°C° 0 mm 2 mps 745 mmHg 34%
    15:00 +33°C° 0 mm 3 mps 745 mmHg 37%
    16:00 +31°C° 0 mm 3 mps 744 mmHg 40%
    17:00 +28°C° 0 mm 3 mps 745 mmHg 50%
    18:00 +25°C° 0 mm 2 mps 745 mmHg 59%
    19:00 +23°C° 0 mm 2 mps 746 mmHg 69%
    20:00 +21°C° 0 mm 2 mps 747 mmHg 75%
    21:00 +19°C° 0 mm 2 mps 747 mmHg 81%
    22:00 +19°C° 0 mm 1 mps 748 mmHg 87%
    23:00 +19°C° 0 mm 1 mps 748 mmHg 88%

    Day after tomorrow, 26 January, Saturday

    Time Temperature Precipitation Wind Pressure Humidity
    00:00 +19°C° 0 mm 1 mps 747 mmHg 89%
    01:00 +18°C° 0 mm 1 mps 747 mmHg 90%
    02:00 +18°C° 0 mm 1 mps 747 mmHg 91%
    03:00 +18°C° 0 mm 1 mps 747 mmHg 91%
    04:00 +18°C° 0 mm 1 mps 746 mmHg 92%
    05:00 +18°C° 0 mm 1 mps 747 mmHg 91%
    06:00 +18°C° 0 mm 1 mps 747 mmHg 90%
    07:00 +19°C° 0 mm 1 mps 748 mmHg 89%
    08:00 +20°C° 0 mm 2 mps 748 mmHg 77%
    09:00 +24°C° 0 mm 3 mps 749 mmHg 65%
    10:00 +27°C° 0 mm 3 mps 749 mmHg 52%
    11:00 +28°C° 0 mm 3 mps 749 mmHg 49%
    12:00 +29°C° 0 mm 4 mps 748 mmHg 46%
    13:00 +30°C° 0 mm 4 mps 747 mmHg 43%
    14:00 +29°C° 0 mm 4 mps 747 mmHg 45%
    15:00 +29°C° 0 mm 4 mps 746 mmHg 47%
    16:00 +28°C° 0 mm 4 mps 746 mmHg 49%
    17:00 +26°C° 0 mm 3 mps 746 mmHg 56%
    18:00 +24°C° 0 mm 3 mps 747 mmHg 64%
    19:00 +21°C° 0 mm 2 mps 747 mmHg 72%
    20:00 +21°C° 0 mm 2 mps 748 mmHg 75%
    21:00 +20°C° 0 mm 2 mps 748 mmHg 78%
    22:00 +19°C° 0 mm 2 mps 749 mmHg 81%
    23:00 +20°C° 0 mm 1 mps 748 mmHg 84%

    27 January, Sunday

    Time Temperature Precipitation Wind Pressure Humidity
    00:00 +20°C° 0 mm 1 mps 748 mmHg 86%
    01:00 +19°C° 0 mm 1 mps 748 mmHg 88%
    02:00 +19°C° 0 mm 1 mps 747 mmHg 90%
    03:00 +19°C° 0 mm 1 mps 747 mmHg 91%
    04:00 +19°C° 0 mm 1 mps 747 mmHg 93%
    05:00 +19°C° 0 mm 1 mps 747 mmHg 93%
    06:00 +19°C° 0 mm 1 mps 748 mmHg 93%
    07:00 +19°C° 0 mm 1 mps 748 mmHg 94%
    08:00 +21°C° 0 mm 1 mps 748 mmHg 80%
    09:00 +24°C° 0 mm 2 mps 749 mmHg 67%
    10:00 +27°C° 0 mm 3 mps 749 mmHg 53%
    11:00 +28°C° 0 mm 3 mps 749 mmHg 50%
    12:00 +29°C° 0 mm 3 mps 748 mmHg 47%
    13:00 +30°C° 0 mm 3 mps 747 mmHg 44%
    14:00 +29°C° 0 mm 3 mps 746 mmHg 46%
    15:00 +29°C° 0 mm 3 mps 746 mmHg 47%
    16:00 +28°C° 0 mm 3 mps 745 mmHg 48%
    17:00 +26°C° 0 mm 3 mps 745 mmHg 57%
    18:00 +24°C° 0 mm 2 mps 746 mmHg 65%
    19:00 +21°C° 0 mm 2 mps 746 mmHg 73%
    20:00 +21°C° 0 mm 1 mps 747 mmHg 79%
    21:00 +20°C° 0 mm 1 mps 747 mmHg 84%
    22:00 +19°C° 0 mm 1 mps 747 mmHg 90%
    23:00 +19°C° 0 mm 1 mps 747 mmHg 92%

    28 January, Monday

    Time Temperature Precipitation Wind Pressure Humidity
    00:00 +19°C° 0 mm 1 mps 747 mmHg 94%
    01:00 +19°C° 0 mm 1 mps 746 mmHg 96%
    02:00 +19°C° 0 mm 1 mps 746 mmHg 97%
    03:00 +19°C° 0 mm 1 mps 746 mmHg 97%
    04:00 +19°C° 0 mm 1 mps 745 mmHg 98%
    05:00 +19°C° 0 mm 1 mps 746 mmHg 97%
    06:00 +19°C° 0 mm 1 mps 746 mmHg 97%
    07:00 +19°C° 0 mm 1 mps 747 mmHg 96%
    08:00 +22°C° 0 mm 1 mps 747 mmHg 82%
    09:00 +25°C° 0 mm 2 mps 748 mmHg 68%
    10:00 +28°C° 0 mm 3 mps 748 mmHg 54%
    11:00 +28°C° 0 mm 3 mps 747 mmHg 54%
    12:00 +28°C° 0 mm 3 mps 747 mmHg 54%
    13:00 +28°C° 0 mm 3 mps 746 mmHg 55%
    14:00 +28°C° 0 mm 3 mps 745 mmHg 56%
    15:00 +28°C° 0 mm 3 mps 745 mmHg 57%
    16:00 +27°C° 0 mm 3 mps 744 mmHg 58%
    17:00 +26°C° 0 mm 2 mps 744 mmHg 66%
    18:00 +24°C° 0 mm 2 mps 745 mmHg 74%
    19:00 +22°C° 0 mm 1 mps 745 mmHg 82%
    20:00 +22°C° 0 mm 1 mps 746 mmHg 84%
    21:00 +21°C° 0 mm 1 mps 746 mmHg 87%
    22:00 +21°C° 0 mm 1 mps 746 mmHg 90%
    23:00 +20°C° 0 mm 1 mps 746 mmHg 92%

    29 January, Tuesday

    Time Temperature Precipitation Wind Pressure Humidity
    00:00 +20°C° 0 mm 1 mps 746 mmHg 94%
    01:00 +20°C° 0 mm 1 mps 745 mmHg 96%
    02:00 +19°C° 0 mm 1 mps 745 mmHg 96%
    03:00 +19°C° 0 mm 1 mps 745 mmHg 97%
    04:00 +19°C° 0 mm 1 mps 745 mmHg 97%
    05:00 +19°C° 0 mm 1 mps 745 mmHg 97%
    06:00 +19°C° 0 mm 1 mps 745 mmHg 97%
    07:00 +19°C° 0 mm 1 mps 746 mmHg 96%
    08:00 +22°C° 0 mm 1 mps 746 mmHg 82%
    09:00 +25°C° 0 mm 2 mps 746 mmHg 69%
    10:00 +28°C° 0 mm 2 mps 747 mmHg 55%
    11:00 +29°C° 0 mm 2 mps 746 mmHg 50%
    12:00 +30°C° 0 mm 2 mps 745 mmHg 46%
    13:00 +32°C° 0 mm 2 mps 744 mmHg 41%
    14:00 +31°C° 0 mm 2 mps 744 mmHg 43%
    15:00 +31°C° 0 mm 3 mps 743 mmHg 45%
    16:00 +30°C° 0 mm 3 mps 743 mmHg 46%
    17:00 +28°C° 0 mm 3 mps 743 mmHg 55%
    18:00 +26°C° 0 mm 2 mps 744 mmHg 64%
    19:00 +23°C° 0 mm 2 mps 744 mmHg 73%
    20:00 +21°C° 0 mm 2 mps 745 mmHg 79%
    21:00 +21°C° 0 mm 1 mps 745 mmHg 84%
    22:00 +20°C° 0 mm 1 mps 746 mmHg 90%
    23:00 +20°C° 0 mm 1 mps 745 mmHg 92%
    Show more